[[{"header":{"parameterUnit":"m.s-1","parameterCategory":1,"la1":30.2991,"la2":30.254,"lo1":-89.0895,"lo2":-89.0444,"dy":0.0017,"dx":0.0017,"nx":28,"ny":28,"refTime":"2024-08-14T03:00:00:Z","depth":0,"parameterNumber":2,"parameterNumberName":"U-component_of_WINDS"},"data":[0,0,0,0,0,0,0,0,0,0,0,0,0,0,0,0,0,0,0,0,0,0,0,0,0,0,0,0,0,0,0,0,0,0,0,0,0,0,0,0,0,0,0,0,0,0,0,0,0,0,0,0,0,0,0,0,0,0,3.7832,3.7832,0,3.7915,3.7916,3.7917,3.7814,3.781,3.7807,3.7803,3.7889,3.7895,3.7901,0,0,0,0,0,0,0,0,0,0,0,0,0,3.7584,3.7589,3.7831,3.7832,3.7834,3.7914,3.7916,3.7917,3.7815,3.781,3.7806,3.7801,3.7888,3.7894,3.7901,0,0,0,0,0,0,0,0,0,0,0,0,0,3.7682,3.7591,3.7831,3.7792,3.779,3.7914,3.7916,3.7917,3.7816,3.781,3.7804,3.7799,3.7885,3.7894,3.7902,3.8069,0,0,3.7929,3.7933,0,0,0,0,0,0,0,0,3.7676,3.7691,3.7797,3.7795,3.7793,3.7848,3.786,3.7968,3.7817,3.7806,3.7803,3.7796,3.788,3.7889,3.7917,3.8073,3.8077,3.793,3.7935,3.7939,3.7941,0,0,0,0,0,0,0,3.767,3.7687,3.7864,3.7799,3.7796,3.7771,3.7778,3.788,3.7874,3.7807,3.7799,3.781,3.7878,3.7909,3.7919,3.8078,3.793,3.7937,3.7943,3.7946,3.8373,3.8379,0,0,0,0,0,0,3.7667,3.7682,3.7862,3.7867,3.7719,3.778,3.7788,3.7836,3.7873,3.7873,3.7815,3.7805,3.7897,3.7908,3.7921,3.8117,3.7939,3.7947,3.7952,3.8367,3.8374,3.8381,0,0,0,0,0,0,3.7662,3.7684,3.7858,3.7772,3.7793,3.779,3.7845,3.7841,3.7871,3.7879,3.7878,3.7848,3.7893,3.7909,3.8032,3.8118,3.7951,3.7959,3.836,3.8369,3.8377,3.8511,0,0,0,0,0,0,3.7656,3.7683,3.7747,3.7775,3.7798,3.7969,3.785,3.7846,3.7887,3.7875,3.7909,3.791,3.789,3.802,3.8041,3.8127,3.7966,3.8352,3.8364,3.8375,3.8499,3.8524,3.8545,0,0,0,0,0,3.7647,3.7782,3.7751,3.7773,3.7877,3.7974,3.7987,3.7961,3.7894,3.7958,3.7962,3.7909,3.8106,3.8034,3.8057,3.8147,3.8346,3.836,3.8374,3.8489,3.8519,3.8544,0,0,0,0,0,0,3.7766,3.7785,3.775,3.7898,3.7935,3.7957,3.8036,3.7994,3.8051,3.8038,3.8003,3.8012,3.8143,3.8157,3.8077,3.8309,3.8215,3.8234,3.8294,3.8323,3.8346,3.8339,3.7973,0,0,0,0,0,3.7809,3.7886,3.7899,3.8028,3.8048,3.8039,3.8081,3.8057,3.8094,3.8109,3.8123,3.8161,3.8231,3.8278,3.8343,3.8501,3.8506,3.8574,3.8597,3.8616,3.8632,3.8713,3.8743,3.8426,3.8426,3.8425,0,0,3.7899,3.7919,3.797,3.8052,3.8078,3.8158,3.8053,3.8143,3.8201,3.8123,3.824,3.8251,3.8291,3.8432,3.8495,3.8448,3.8721,3.8633,3.8648,3.8654,3.8731,3.8761,3.8787,3.8435,3.8433,3.8432,0,0,3.8104,3.8128,3.8236,3.8264,3.8304,3.8297,3.8323,3.8351,3.8355,3.8472,3.8414,3.8483,3.8605,3.8635,3.8667,3.8881,3.8833,3.8903,3.9023,3.9103,3.9127,3.9149,3.9224,3.9251,3.892,3.892,3.8921,0,3.8211,3.8329,3.8298,3.8391,3.8428,3.836,3.8469,3.8497,3.8557,3.8584,3.8531,3.8681,3.8704,3.8849,3.8901,3.8929,3.8957,3.8899,3.9126,3.9148,3.9168,3.9238,3.9267,3.8928,3.8927,3.8927,3.8926,0,3.8457,3.854,3.8623,3.8681,3.8727,3.8829,3.8812,3.8863,3.8835,3.8834,3.8952,3.8977,3.9044,3.9077,3.9052,3.9219,3.9188,3.9132,3.9036,3.9207,3.9272,3.9299,3.894,3.8937,3.8935,3.8933,0,0,3.8739,3.8777,3.8808,3.8832,3.8871,3.8934,3.9031,3.9096,3.914,3.9183,3.9262,3.9367,3.9314,3.9349,3.9327,3.9397,3.9562,3.9331,3.9332,3.9371,3.9745,3.9785,3.9817,3.9531,3.9536,3.954,3.974,0,3.8942,3.9109,3.9084,3.9245,3.932,3.9256,3.934,3.9372,3.9373,3.9437,3.9437,3.9511,3.9437,3.9457,3.9524,3.9528,3.9636,3.9513,3.9603,3.9607,3.9593,3.9852,3.9896,4.0084,3.9766,3.977,3.9774,0,3.9201,3.9252,3.9421,3.9445,3.9476,3.9552,3.9608,3.9671,3.9705,3.9701,3.974,3.9704,3.9799,3.9704,3.9835,3.9751,3.9787,3.9794,3.9801,3.9807,3.9699,3.9863,4.0143,4.0171,3.9814,3.9811,3.9808,0,3.9387,3.9498,3.9613,3.9636,3.9668,3.9722,3.9738,3.9768,3.9808,3.9857,3.9883,3.9944,3.9977,4.0024,4.0005,3.9937,4.0139,4.0042,4.0136,4.0137,4.018,4.0178,4.0468,4.0207,4.0207,4.0206,4.0205,0,3.9615,3.9721,3.9696,3.9767,3.9882,3.9851,3.9966,3.9974,4.0,4.007,4.0019,4.0086,4.0057,4.0122,4.0108,4.0217,4.0233,4.0231,4.0226,4.0235,4.0235,4.0256,4.0242,4.0213,4.0212,4.021,4.0209,0,3.9842,3.983,3.995,3.997,3.9977,4.0061,4.0078,4.0143,4.0139,4.0229,4.0248,4.0242,4.0316,4.0301,4.0383,4.0373,4.0509,4.0489,4.0497,4.0491,4.0586,4.0576,4.0899,4.0939,4.0654,4.0656,4.0659,0,3.9987,4.0066,4.0094,4.0137,4.0156,4.0227,4.0267,4.0239,4.0283,4.0327,4.0387,4.0456,4.0509,4.0629,4.0632,4.0694,4.0673,4.0782,4.0682,4.0687,4.0672,4.0666,4.0673,4.0801,4.0804,4.0807,4.0809,0,4.0246,4.0236,4.0296,4.0353,4.0402,4.0446,4.0485,4.0524,4.0499,4.0551,4.0625,4.0666,4.0748,4.0816,4.0872,4.0888,4.0845,4.0841,4.0865,4.0874,4.0875,4.0873,4.0549,4.0833,4.0831,4.0829,4.0828,4.0827,4.0435,4.0501,4.053,4.0598,4.0624,4.0662,4.0723,4.0726,4.0787,4.0851,4.0831,4.0915,4.0946,4.1017,4.1039,4.1103,4.1063,4.1099,4.1108,4.1117,4.1127,4.0866,4.1114,4.1113,4.1113,4.1112,4.1111,0,4.0689,4.0704,4.0767,4.0822,4.0875,4.0829,4.087,4.0917,4.099,4.1023,4.1075,4.1159,4.1224,4.1232,4.1294,4.1343,4.1325,4.136,4.1355,4.1359,4.1161,4.1133,4.1374,4.1374,4.1374,4.1374,4.1374,4.1374,4.0828,4.0936,4.0929,4.105,4.1064,4.1145,4.1172,4.1205,4.123,4.1326,4.1379,4.1384,4.1405,4.1468,4.1525,4.1525,4.1549,4.1592,4.1585,4.14,4.1373,4.1348,4.1321,4.1598,4.1599,4.1777,4.1779,4.178]},{"header":{"parameterUnit":"m.s-1","parameterCategory":1,"la1":30.2991,"la2":30.254,"lo1":-89.0895,"lo2":-89.0444,"dy":0.0017,"dx":0.0017,"nx":28,"ny":28,"refTime":"2024-08-14T03:00:00:Z","depth":0,"parameterNumber":3,"parameterNumberName":"V-component_of_WINDS"},"data":[0,0,0,0,0,0,0,0,0,0,0,0,0,0,0,0,0,0,0,0,0,0,0,0,0,0,0,0,0,0,0,0,0,0,0,0,0,0,0,0,0,0,0,0,0,0,0,0,0,0,0,0,0,0,0,0,0,0,0.8,0.8,0,0.803,0.8031,0.8031,0.8034,0.8034,0.8033,0.8033,0.8064,0.8065,0.8066,0,0,0,0,0,0,0,0,0,0,0,0,0,0.7942,0.7943,0.8,0.8,0.8,0.803,0.8031,0.8031,0.8034,0.8034,0.8033,0.8033,0.8064,0.8065,0.8066,0,0,0,0,0,0,0,0,0,0,0,0,0,0.7969,0.7944,0.8,0.8006,0.8006,0.803,0.8031,0.8031,0.8034,0.8034,0.8033,0.8033,0.8063,0.8065,0.8067,0.8086,0,0,0.8072,0.8072,0,0,0,0,0,0,0,0,0.7968,0.7972,0.8004,0.8005,0.8006,0.8028,0.8022,0.805,0.8034,0.8024,0.8033,0.8032,0.8052,0.8055,0.8062,0.8088,0.8089,0.8072,0.8073,0.8074,0.8074,0,0,0,0,0,0,0,0.7966,0.797,0.8012,0.8005,0.8006,0.8006,0.8009,0.8027,0.804,0.8024,0.8025,0.8028,0.8053,0.806,0.8062,0.809,0.8072,0.8073,0.8074,0.8075,0.8131,0.8132,0,0,0,0,0,0,0.7963,0.7969,0.8011,0.8013,0.7985,0.8007,0.8011,0.8021,0.804,0.8042,0.8029,0.8028,0.8057,0.8061,0.8064,0.8087,0.8074,0.8075,0.8076,0.8131,0.8131,0.8132,0,0,0,0,0,0,0.7962,0.7967,0.801,0.7991,0.7996,0.8009,0.802,0.8022,0.8029,0.8043,0.8046,0.8034,0.8057,0.8061,0.808,0.8088,0.8076,0.8078,0.813,0.8131,0.8132,0.8134,0,0,0,0,0,0,0.796,0.7966,0.7975,0.7991,0.7997,0.8026,0.8021,0.8023,0.8032,0.8032,0.8049,0.8051,0.8057,0.8078,0.8082,0.809,0.8079,0.813,0.8131,0.8132,0.8133,0.8135,0.8136,0,0,0,0,0,0.7958,0.7975,0.7975,0.798,0.8008,0.8027,0.803,0.8037,0.8033,0.8041,0.8049,0.805,0.8086,0.808,0.8084,0.8093,0.8129,0.813,0.8131,0.8133,0.8134,0.8136,0,0,0,0,0,0,0.796,0.7977,0.7978,0.8,0.8012,0.8027,0.8038,0.8039,0.8053,0.8052,0.8059,0.8063,0.8082,0.8089,0.8082,0.8112,0.8107,0.8109,0.8107,0.8108,0.811,0.8107,0.808,0,0,0,0,0,0.7963,0.7977,0.7991,0.8009,0.8015,0.8025,0.8034,0.8038,0.805,0.8055,0.8065,0.8077,0.8091,0.81,0.8114,0.8134,0.8137,0.8142,0.8144,0.8145,0.8146,0.8156,0.8158,0.8136,0.8136,0.8136,0,0,0.7969,0.798,0.7989,0.801,0.8019,0.8033,0.803,0.8045,0.8055,0.8058,0.8076,0.8084,0.8097,0.8117,0.8126,0.8124,0.8153,0.8146,0.8147,0.8148,0.8157,0.8159,0.8161,0.8136,0.8136,0.8136,0,0,0.7987,0.7997,0.8013,0.8022,0.8036,0.8043,0.8046,0.8061,0.8066,0.8084,0.8086,0.8098,0.8122,0.8131,0.8139,0.8158,0.8159,0.8162,0.8169,0.8178,0.818,0.8181,0.8187,0.8189,0.8163,0.8163,0.8163,0,0.7993,0.8014,0.8021,0.8035,0.8044,0.8046,0.8061,0.807,0.8088,0.8093,0.8091,0.8119,0.8129,0.8149,0.8154,0.816,0.8164,0.816,0.8179,0.8181,0.8182,0.8188,0.819,0.8164,0.8164,0.8164,0.8164,0,0.802,0.8035,0.8045,0.8062,0.8071,0.8086,0.8094,0.8103,0.8105,0.8111,0.8129,0.814,0.8155,0.816,0.8163,0.8181,0.8179,0.8177,0.8173,0.8184,0.819,0.8192,0.8164,0.8164,0.8164,0.8164,0,0,0.8042,0.806,0.8064,0.807,0.8085,0.8096,0.811,0.8124,0.8131,0.8143,0.8154,0.8173,0.8171,0.818,0.8184,0.8192,0.8204,0.8189,0.819,0.8191,0.8223,0.8223,0.8226,0.8205,0.8205,0.8206,0.8221,0,0.8061,0.8086,0.8091,0.8113,0.8125,0.8127,0.8139,0.8148,0.8154,0.8165,0.8171,0.8184,0.8181,0.8186,0.8194,0.8201,0.8211,0.82,0.8215,0.8215,0.8211,0.8229,0.823,0.8244,0.8223,0.8224,0.8224,0,0.8088,0.8099,0.8122,0.8133,0.8138,0.8149,0.8161,0.8172,0.8182,0.8186,0.8194,0.8196,0.821,0.8204,0.8222,0.8215,0.8221,0.8225,0.8225,0.8227,0.822,0.823,0.8249,0.8251,0.8228,0.8227,0.8227,0,0.81,0.8121,0.8136,0.8142,0.8156,0.8163,0.8169,0.8179,0.8186,0.8197,0.8202,0.8214,0.822,0.8229,0.8234,0.823,0.8251,0.8246,0.8254,0.8254,0.8259,0.8258,0.8278,0.8263,0.8263,0.8263,0.8263,0,0.8121,0.8134,0.8142,0.8151,0.8166,0.8171,0.8185,0.8191,0.8199,0.8209,0.8211,0.8221,0.8227,0.8237,0.8241,0.8254,0.8257,0.826,0.8261,0.826,0.8259,0.8264,0.8263,0.8263,0.8263,0.8263,0.8263,0,0.8137,0.8143,0.816,0.8171,0.8173,0.8184,0.8193,0.8201,0.8206,0.8219,0.8222,0.823,0.8241,0.8247,0.8262,0.8264,0.8279,0.828,0.8276,0.8276,0.8283,0.8282,0.8306,0.8309,0.8292,0.8292,0.8293,0,0.815,0.816,0.8171,0.8178,0.8184,0.8195,0.8202,0.8207,0.8214,0.8225,0.8232,0.8244,0.8254,0.8272,0.8278,0.8289,0.8289,0.8297,0.8291,0.8289,0.8289,0.8288,0.8288,0.8298,0.8298,0.8299,0.8299,0,0.8172,0.8174,0.8184,0.8194,0.8203,0.8212,0.822,0.8225,0.8231,0.8239,0.825,0.8258,0.8272,0.8283,0.8294,0.8299,0.8299,0.83,0.8302,0.8301,0.8298,0.8299,0.8278,0.83,0.83,0.83,0.83,0.83,0.8186,0.8195,0.8203,0.8214,0.8221,0.8228,0.8236,0.8242,0.8251,0.8263,0.8265,0.8277,0.8285,0.8299,0.8305,0.8314,0.8312,0.8315,0.8316,0.8317,0.8317,0.8297,0.8316,0.8316,0.8316,0.8316,0.8316,0,0.8208,0.8213,0.8222,0.8234,0.8242,0.8241,0.8249,0.8256,0.8267,0.8274,0.8283,0.8295,0.8305,0.8312,0.8322,0.8328,0.8328,0.833,0.833,0.8331,0.8318,0.8315,0.833,0.833,0.833,0.833,0.833,0.833,0.822,0.8233,0.8235,0.8251,0.8256,0.8268,0.8273,0.8279,0.8285,0.8298,0.8307,0.8311,0.8317,0.8328,0.8336,0.8338,0.8341,0.8343,0.8345,0.8333,0.8332,0.833,0.8327,0.8344,0.8344,0.8356,0.8356,0.8356]}]]